CPA831 KJFK-VHHH

Flight info

Callsign CPA831
Flight time N/A
Altitude 29000
Route GREKI DCT JUDDS DCT CAM DCT PBERG DCT MOFAT DCT 5730N07000W/N0491F310 DCT TEFFO DCT AYROU/M084F310 DCT BOPUT DCT 70N060W 80N040W 83N020W/M084F330 DCT RITAK/K0896F330 T572 ANODI N611 DOSON R705 TESLA/K0896F350 R705 BRT G490 SERNA/K0893S1070 Y520 POLHO/K0887S1100 G218 TMR/K0891S1070 B458 IPLEV/K0889S1130 B458 DADGA/K0900S1100 W37 GUSIV/K0900S1130 W37 PEXID/K0906S1100 W37 OMBEB/K0900S1130 R473 NNX/K0896S1160 R473 WYN W18 NLG W23 ZUH R473 SIERA
Aircraft B77W/H-SDE1E2E3FGHIJ2J3J4J5M1RWXY/LB1D1

Departure

Time N/A
Airport John F. Kennedy International Airport (KJFK)

Arrival

Time 2026-04-30 09:21
Airport Hong Kong International Airport (VHHH)
Time Latitude Longitude Altitude Speed Heading
2026-04-30 08:53 21.84034 113.48334 35006 ft 385 kts 249°
2026-04-30 08:53 21.83220 113.45571 35008 ft 382 kts 261°
2026-04-30 08:54 21.83021 113.42723 35009 ft 382 kts 272°
2026-04-30 08:54 21.83416 113.39928 35012 ft 385 kts 283°
2026-04-30 08:54 21.84417 113.37206 35008 ft 390 kts 295°
2026-04-30 08:54 21.85948 113.34825 35008 ft 396 kts 307°
2026-04-30 08:55 21.87920 113.32723 35016 ft 402 kts 315°
2026-04-30 08:55 21.90288 113.31066 34974 ft 413 kts 331°
2026-04-30 08:55 21.92844 113.30075 34676 ft 415 kts 335°
2026-04-30 08:55 21.95368 113.29207 34292 ft 413 kts 335°
2026-04-30 08:56 21.98095 113.28269 33867 ft 410 kts 335°
2026-04-30 08:56 22.00795 113.27310 33427 ft 407 kts 334°
2026-04-30 08:56 22.03471 113.26329 32981 ft 404 kts 335°
2026-04-30 08:56 22.06123 113.25342 32557 ft 401 kts 335°
2026-04-30 08:57 22.08753 113.24372 32180 ft 396 kts 338°
2026-04-30 08:57 22.11506 113.23923 31681 ft 407 kts 355°
2026-04-30 08:57 22.14321 113.24353 31175 ft 408 kts 12°
2026-04-30 08:57 22.16892 113.25518 30420 ft 407 kts 25°
2026-04-30 08:58 22.18501 113.26649 29763 ft 409 kts 34°
2026-04-30 08:58 22.19790 113.27849 29172 ft 409 kts 42°
2026-04-30 08:58 22.21581 113.30216 28181 ft 410 kts 56°
2026-04-30 08:58 22.22805 113.32986 27296 ft 407 kts 72°
2026-04-30 08:59 22.23334 113.35936 26654 ft 396 kts 88°
2026-04-30 08:59 22.23189 113.38842 26084 ft 382 kts 103°
2026-04-30 08:59 22.22455 113.41522 25541 ft 367 kts 117°
2026-04-30 08:59 22.21236 113.43879 24956 ft 352 kts 130°
2026-04-30 09:00 22.19685 113.45858 24336 ft 343 kts 139°
2026-04-30 09:00 22.17936 113.47592 23694 ft 335 kts 147°
2026-04-30 09:00 22.15993 113.48901 22902 ft 324 kts 165°
2026-04-30 09:00 22.13869 113.49675 22177 ft 322 kts 167°
2026-04-30 09:01 22.11749 113.50430 21605 ft 319 kts 167°
2026-04-30 09:01 22.09667 113.51188 21208 ft 310 kts 167°
2026-04-30 09:01 22.07591 113.51955 21009 ft 328 kts 166°
2026-04-30 09:01 22.05384 113.52800 20755 ft 355 kts 160°
2026-04-30 09:02 22.01808 113.56850 18490 ft 406 kts 111°
2026-04-30 09:02 22.01363 113.59919 17535 ft 408 kts 88°
2026-04-30 09:02 22.01724 113.62865 17232 ft 386 kts 74°
2026-04-30 09:03 22.02636 113.65437 16996 ft 363 kts 62°
2026-04-30 09:03 22.03806 113.67772 16652 ft 347 kts 56°
2026-04-30 09:03 22.05057 113.69948 16206 ft 338 kts 55°
2026-04-30 09:03 22.06269 113.72102 15643 ft 334 kts 57°
2026-04-30 09:04 22.07419 113.74271 15043 ft 332 kts 59°
2026-04-30 09:04 22.08514 113.76455 14488 ft 330 kts 60°
2026-04-30 09:04 22.09568 113.78638 13945 ft 327 kts 60°
2026-04-30 09:04 22.10593 113.80815 13376 ft 324 kts 61°
2026-04-30 09:05 22.11597 113.82975 12790 ft 321 kts 62°
2026-04-30 09:05 22.12585 113.85120 12220 ft 317 kts 62°
2026-04-30 09:05 22.13229 113.86522 11843 ft 315 kts 62°
2026-04-30 09:06 22.14429 113.89139 11143 ft 312 kts 62°
2026-04-30 09:06 22.15382 113.91221 10617 ft 309 kts 62°
2026-04-30 09:07 22.16331 113.93296 10097 ft 307 kts 62°
2026-04-30 09:07 22.17160 113.95394 9526 ft 304 kts 77°
2026-04-30 09:07 22.17269 113.97628 8965 ft 300 kts 96°
2026-04-30 09:07 22.16977 113.99860 8433 ft 296 kts 101°
2026-04-30 09:08 22.16615 114.02034 7929 ft 292 kts 101°
2026-04-30 09:08 22.16256 114.04110 7933 ft 274 kts 101°
2026-04-30 09:08 22.15890 114.06195 7966 ft 292 kts 102°
2026-04-30 09:08 22.15384 114.08331 7943 ft 294 kts 118°
2026-04-30 09:09 22.14078 114.09967 7946 ft 287 kts 152°
2026-04-30 09:09 22.12229 114.10561 7944 ft 274 kts 186°
2026-04-30 09:09 22.11017 114.10294 7943 ft 267 kts 208°
2026-04-30 09:09 22.09401 114.08475 7941 ft 257 kts 253°
2026-04-30 09:10 22.09335 114.06591 7946 ft 253 kts 283°
2026-04-30 09:10 22.09621 114.04742 7938 ft 253 kts 264°
2026-04-30 09:10 22.08961 114.02975 7958 ft 260 kts 236°
2026-04-30 09:10 22.08229 114.01919 7967 ft 260 kts 238°
2026-04-30 09:11 22.07563 114.00143 7942 ft 259 kts 267°
2026-04-30 09:11 22.07775 113.98218 7968 ft 260 kts 281°
2026-04-30 09:11 22.08122 113.96289 7978 ft 263 kts 279°
2026-04-30 09:11 22.08433 113.94355 7971 ft 260 kts 278°
2026-04-30 09:12 22.08719 113.92447 7822 ft 258 kts 278°
2026-04-30 09:12 22.08992 113.90533 7499 ft 257 kts 278°
2026-04-30 09:12 22.09257 113.88612 7209 ft 261 kts 278°
2026-04-30 09:12 22.09518 113.86669 6894 ft 262 kts 278°
2026-04-30 09:13 22.09771 113.84755 6582 ft 261 kts 278°
2026-04-30 09:13 22.10025 113.82824 6261 ft 259 kts 278°
2026-04-30 09:13 22.10275 113.80908 5934 ft 258 kts 278°
2026-04-30 09:13 22.10583 113.79022 5588 ft 251 kts 289°
2026-04-30 09:14 22.11512 113.77467 5302 ft 248 kts 315°
2026-04-30 09:14 22.12925 113.76402 5016 ft 250 kts 331°
2026-04-30 09:14 22.14467 113.75624 4847 ft 246 kts 334°
2026-04-30 09:14 22.16027 113.74877 4701 ft 237 kts 334°
2026-04-30 09:15 22.17501 113.74162 4541 ft 229 kts 334°
2026-04-30 09:15 22.18935 113.73455 4272 ft 226 kts 334°
2026-04-30 09:15 22.20347 113.72755 4046 ft 219 kts 335°
2026-04-30 09:15 22.21717 113.72075 3777 ft 215 kts 336°
2026-04-30 09:16 22.23131 113.71770 3484 ft 205 kts
2026-04-30 09:16 22.24423 113.72254 3349 ft 193 kts 30°
2026-04-30 09:16 22.25477 113.73124 3056 ft 191 kts 39°
2026-04-30 09:16 22.26478 113.74059 2797 ft 188 kts 40°
2026-04-30 09:17 22.27442 113.74975 2556 ft 182 kts 46°
2026-04-30 09:17 22.28063 113.76129 2315 ft 173 kts 64°
2026-04-30 09:17 22.28552 113.77263 2086 ft 159 kts 65°
2026-04-30 09:17 22.28942 113.78307 1891 ft 142 kts 67°
2026-04-30 09:18 22.29264 113.79266 1744 ft 136 kts 69°
2026-04-30 09:18 22.29587 113.80256 1543 ft 141 kts 67°
2026-04-30 09:18 22.29909 113.81251 1364 ft 138 kts 67°
2026-04-30 09:18 22.30222 113.82221 1166 ft 135 kts 66°
2026-04-30 09:19 22.30535 113.83188 981 ft 137 kts 67°
2026-04-30 09:19 22.30853 113.84173 831 ft 141 kts 68°
2026-04-30 09:19 22.31185 113.85200 664 ft 149 kts 67°
2026-04-30 09:19 22.31536 113.86284 451 ft 156 kts 68°
2026-04-30 09:20 22.31891 113.87393 242 ft 155 kts 68°
2026-04-30 09:20 22.32241 113.88478 59 ft 152 kts 67°
2026-04-30 09:20 22.32562 113.89472 43 ft 128 kts 68°
2026-04-30 09:20 22.32814 113.90241 42 ft 87 kts 72°
2026-04-30 09:21 22.32967 113.90710 41 ft 55 kts 70°
2026-04-30 09:21 22.33080 113.91052 44 ft 34 kts 71°
2026-04-30 09:21 22.33130 113.91245 46 ft 24 kts 91°
2026-04-30 09:21 22.33048 113.91323 44 ft 14 kts 160°
2026-04-30 09:22 22.33009 113.91406 43 ft 14 kts 78°
2026-04-30 09:22 22.33044 113.91525 43 ft 23 kts 71°
2026-04-30 09:22 22.33111 113.91732 42 ft 32 kts 71°
2026-04-30 09:22 22.33178 113.91941 42 ft 14 kts 71°
2026-04-30 09:23 22.33145 113.92027 41 ft 14 kts 155°
2026-04-30 09:23 22.33053 113.92064 42 ft 14 kts 160°
2026-04-30 09:23 22.32959 113.92099 42 ft 16 kts 161°
2026-04-30 09:23 22.32769 113.92168 42 ft 36 kts 162°
2026-04-30 09:24 22.32599 113.92232 42 ft 25 kts 158°
2026-04-30 09:24 22.32434 113.92299 42 ft 25 kts 160°
2026-04-30 09:24 22.32278 113.92358 42 ft 18 kts 160°
2026-04-30 09:24 22.32159 113.92407 42 ft 18 kts 145°
2026-04-30 09:25 22.32156 113.92516 42 ft 15 kts 72°
2026-04-30 09:25 22.32185 113.92630 42 ft 16 kts 85°
2026-04-30 09:25 22.32114 113.92709 41 ft 17 kts 159°
2026-04-30 09:25 22.31980 113.92759 41 ft 24 kts 160°
2026-04-30 09:26 22.31824 113.92816 42 ft 23 kts 180°
2026-04-30 09:26 22.31754 113.92699 42 ft 19 kts 251°
2026-04-30 09:26 22.31710 113.92562 42 ft 19 kts 251°
2026-04-30 09:26 22.31666 113.92425 42 ft 19 kts 251°
2026-04-30 09:27 22.31621 113.92288 41 ft 19 kts 250°
2026-04-30 09:27 22.31582 113.92168 41 ft 7 kts 252°
2026-04-30 09:27 22.31567 113.92115 41 ft 10 kts 251°
2026-04-30 09:27 22.31481 113.92068 42 ft 17 kts 160°
2026-04-30 09:28 22.31425 113.92105 42 ft 10 kts 133°
2026-04-30 09:28 22.31374 113.92228 42 ft 15 kts 115°
2026-04-30 09:28 22.31357 113.92292 42 ft 0 kts 77°
2026-04-30 09:28 22.31389 113.92324 42 ft 13 kts 33°
2026-04-30 09:29 22.31416 113.92340 42 ft 0 kts 28°